TimeEDT,TemperatureF,Dew PointF,Humidity,Sea Level PressureIn,VisibilityMPH,Wind Direction,Wind SpeedMPH,Gust SpeedMPH,PrecipitationIn,Events,Conditions,WindDirDegrees,DateUTC
12:53 AM,35.1,30.9,85,30.20,10.0,Calm,Calm,-,N/A,,Clear,0,2011-11-01 04:53:00
1:53 AM,34.0,30.9,89,30.21,5.0,Calm,Calm,-,N/A,,Clear,0,2011-11-01 05:53:00
2:53 AM,34.0,30.0,85,30.22,7.0,Calm,Calm,-,N/A,,Clear,0,2011-11-01 06:53:00
3:53 AM,32.0,28.9,88,30.22,7.0,Calm,Calm,-,N/A,,Clear,0,2011-11-01 07:53:00
4:00 AM,32.0,28.4,87,30.20,2.0,Calm,Calm,-,N/A,,Clear,0,2011-11-01 08:00:00
4:10 AM,32.0,28.4,87,30.20,3.0,Calm,Calm,-,N/A,,Clear,0,2011-11-01 08:10:00
4:19 AM,32.0,28.4,87,30.20,1.8,Calm,Calm,-,N/A,,Clear,0,2011-11-01 08:19:00
4:30 AM,32.0,28.4,87,30.20,2.5,Calm,Calm,-,N/A,,Clear,0,2011-11-01 08:30:00
4:37 AM,32.0,28.4,87,30.21,6.0,Calm,Calm,-,N/A,,Clear,0,2011-11-01 08:37:00
4:53 AM,30.9,28.0,89,30.22,4.0,Calm,Calm,-,N/A,,Clear,0,2011-11-01 08:53:00
4:55 AM,30.2,28.4,93,30.20,2.0,Calm,Calm,-,N/A,,Clear,0,2011-11-01 08:55:00
5:05 AM,30.2,26.6,86,30.20,3.0,Calm,Calm,-,N/A,,Clear,0,2011-11-01 09:05:00
5:53 AM,32.0,28.0,85,30.23,6.0,Calm,Calm,-,N/A,,Clear,0,2011-11-01 09:53:00
6:16 AM,32.0,28.4,87,30.22,2.0,Calm,Calm,-,N/A,,Clear,0,2011-11-01 10:16:00
6:26 AM,30.2,28.4,93,30.22,3.0,Calm,Calm,-,N/A,,Clear,0,2011-11-01 10:26:00
6:53 AM,30.0,27.0,88,30.25,5.0,Calm,Calm,-,N/A,,Scattered Clouds,0,2011-11-01 10:53:00
7:05 AM,30.2,26.6,86,30.23,1.5,Calm,Calm,-,N/A,,Scattered Clouds,0,2011-11-01 11:05:00
7:08 AM,30.2,26.6,86,30.23,0.8,Calm,Calm,-,N/A,,Mist,0,2011-11-01 11:08:00
7:21 AM,30.2,26.6,86,30.23,1.2,Calm,Calm,-,N/A,,Partly Cloudy,0,2011-11-01 11:21:00
7:24 AM,30.2,26.6,86,30.23,3.0,Calm,Calm,-,N/A,,Partly Cloudy,0,2011-11-01 11:24:00
7:27 AM,30.2,26.6,86,30.23,1.5,Calm,Calm,-,N/A,,Partly Cloudy,0,2011-11-01 11:27:00
7:30 AM,30.2,26.6,86,30.23,0.8,Calm,Calm,-,N/A,,Mist,0,2011-11-01 11:30:00
7:53 AM,30.0,27.0,88,30.26,0.5,Calm,Calm,-,N/A,Fog,Light Freezing Fog,0,2011-11-01 11:53:00
7:57 AM,30.2,26.6,86,30.23,1.2,Calm,Calm,-,N/A,,Partly Cloudy,0,2011-11-01 11:57:00
8:05 AM,30.2,26.6,86,30.24,3.0,Calm,Calm,-,N/A,,Clear,0,2011-11-01 12:05:00
8:53 AM,30.9,28.0,89,30.27,4.0,Calm,Calm,-,N/A,,Clear,0,2011-11-01 12:53:00
9:53 AM,39.0,35.1,86,30.27,5.0,South,5.8,-,N/A,,Clear,180,2011-11-01 13:53:00
10:53 AM,44.1,37.0,76,30.27,9.0,South,4.6,-,N/A,,Clear,190,2011-11-01 14:53:00
11:53 AM,48.9,37.9,66,30.27,10.0,South,4.6,-,N/A,,Clear,190,2011-11-01 15:53:00
12:53 PM,55.0,39.9,57,30.25,10.0,South,6.9,-,N/A,,Clear,190,2011-11-01 16:53:00
1:53 PM,57.0,37.9,49,30.22,10.0,South,8.1,-,N/A,,Clear,190,2011-11-01 17:53:00
2:53 PM,59.0,36.0,42,30.20,10.0,South,8.1,-,N/A,,Clear,190,2011-11-01 18:53:00
3:53 PM,60.1,36.0,41,30.19,10.0,South,10.4,-,N/A,,Clear,190,2011-11-01 19:53:00
4:53 PM,61.0,35.1,38,30.19,10.0,South,10.4,-,N/A,,Clear,190,2011-11-01 20:53:00
5:53 PM,59.0,37.0,44,30.19,10.0,South,4.6,-,N/A,,Clear,180,2011-11-01 21:53:00
6:53 PM,55.9,36.0,47,30.19,10.0,SSE,3.5,-,N/A,,Clear,160,2011-11-01 22:53:00
7:53 PM,54.0,36.0,51,30.20,10.0,SSE,4.6,-,N/A,,Clear,160,2011-11-01 23:53:00
8:53 PM,53.1,37.0,55,30.20,10.0,South,6.9,-,N/A,,Clear,170,2011-11-02 00:53:00
9:53 PM,53.1,36.0,52,30.20,10.0,South,8.1,-,N/A,,Clear,180,2011-11-02 01:53:00
10:53 PM,52.0,36.0,54,30.20,10.0,South,9.2,-,N/A,,Clear,190,2011-11-02 02:53:00
11:53 PM,52.0,36.0,54,30.19,10.0,SSW,10.4,-,N/A,,Clear,200,2011-11-02 03:53:00